When you browse on this site, cookies collect data to enhance your experience and personalize the content and advertising you see.
Visit our Privacy Policy to learn more. By continuing to use the site, you agree to this use of cookies and data.
  • Em Portugal
  • Lista de países
  • Para 7 dias
  • Temperatura da água
  • Mapas de satélite
  • Mapa do tempo
  • Widgets de tempo
  • user-avatar
    Iniciar Sessão

    Previsão horária em Trinidad

    Hoje, 25 Março, Segunda-feira

    Tempo Temperatura Precipitação Vento Pressão Humidade
    00:00 +26°C° 2.5 mm 1 m/s 745 mmHg 90%
    01:00 +26°C° 2.5 mm 1 m/s 745 mmHg 93%
    02:00 +23°C° 2.5 mm 0 m/s 744 mmHg 96%
    03:00 +25°C° 2.2 mm 1 m/s 744 mmHg 97%
    04:00 +25°C° 2.2 mm 1 m/s 744 mmHg 97%
    05:00 +25°C° 2.2 mm 1 m/s 744 mmHg 98%
    06:00 +25°C° 0.2 mm 1 m/s 744 mmHg 97%
    07:00 +25°C° 0.2 mm 1 m/s 745 mmHg 96%
    08:00 +25°C° 0.2 mm 2 m/s 745 mmHg 96%
    09:00 +27°C° 0.4 mm 2 m/s 745 mmHg 93%
    10:00 +28°C° 0.4 mm 2 m/s 745 mmHg 89%
    11:00 +29°C° 0.4 mm 2 m/s 745 mmHg 86%
    12:00 +30°C° 0.6 mm 2 m/s 744 mmHg 79%
    13:00 +31°C° 0.6 mm 2 m/s 743 mmHg 73%
    14:00 +32°C° 0.6 mm 2 m/s 743 mmHg 66%
    15:00 +32°C° 0 mm 2 m/s 742 mmHg 68%
    16:00 +32°C° 0 mm 1 m/s 742 mmHg 71%
    17:00 +31°C° 0 mm 1 m/s 741 mmHg 73%
    18:00 +30°C° 0 mm 1 m/s 741 mmHg 77%
    19:00 +29°C° 0 mm 1 m/s 742 mmHg 81%
    20:00 +27°C° 0 mm 1 m/s 742 mmHg 85%
    21:00 +27°C° 0 mm 1 m/s 743 mmHg 86%
    22:00 +27°C° 0 mm 1 m/s 743 mmHg 87%
    23:00 +25°C° 0 mm 0 m/s 744 mmHg 88%

    Amanhã, 26 Março, Terça-feira

    Tempo Temperatura Precipitação Vento Pressão Humidade
    00:00 +24°C° 0 mm 0 m/s 744 mmHg 89%
    01:00 +24°C° 0 mm 0 m/s 743 mmHg 89%
    02:00 +24°C° 0 mm 0 m/s 743 mmHg 90%
    03:00 +24°C° 0.3 mm 0 m/s 743 mmHg 91%
    04:00 +25°C° 0.3 mm 1 m/s 743 mmHg 93%
    05:00 +25°C° 0.3 mm 1 m/s 743 mmHg 95%
    06:00 +25°C° 0.1 mm 1 m/s 743 mmHg 94%
    07:00 +26°C° 0.1 mm 1 m/s 744 mmHg 93%
    08:00 +26°C° 0.1 mm 1 m/s 744 mmHg 93%
    09:00 +27°C° 1.1 mm 1 m/s 745 mmHg 91%
    10:00 +28°C° 1.1 mm 2 m/s 745 mmHg 90%
    11:00 +29°C° 1.1 mm 2 m/s 745 mmHg 89%
    12:00 +29°C° 1.8 mm 2 m/s 744 mmHg 88%
    13:00 +29°C° 1.8 mm 2 m/s 744 mmHg 87%
    14:00 +29°C° 1.8 mm 2 m/s 743 mmHg 86%
    15:00 +29°C° 0.7 mm 2 m/s 742 mmHg 88%
    16:00 +29°C° 0.7 mm 2 m/s 742 mmHg 90%
    17:00 +28°C° 0.7 mm 1 m/s 742 mmHg 91%
    18:00 +28°C° 0 mm 1 m/s 742 mmHg 93%
    19:00 +27°C° 0 mm 1 m/s 743 mmHg 94%
    20:00 +26°C° 0 mm 1 m/s 743 mmHg 96%
    21:00 +26°C° 0 mm 1 m/s 744 mmHg 96%
    22:00 +26°C° 0 mm 1 m/s 745 mmHg 96%
    23:00 +26°C° 0 mm 1 m/s 745 mmHg 96%

    Depois de amanhã, 27 Março, Quarta-feira

    Tempo Temperatura Precipitação Vento Pressão Humidade
    00:00 +26°C° 1.7 mm 1 m/s 745 mmHg 96%
    01:00 +25°C° 1.7 mm 2 m/s 745 mmHg 96%
    02:00 +25°C° 1.7 mm 2 m/s 745 mmHg 95%
    03:00 +25°C° 0.8 mm 3 m/s 745 mmHg 96%
    04:00 +24°C° 0.8 mm 3 m/s 745 mmHg 96%
    05:00 +24°C° 0.8 mm 3 m/s 745 mmHg 97%
    06:00 +24°C° 0.2 mm 3 m/s 745 mmHg 95%
    07:00 +23°C° 0.2 mm 4 m/s 746 mmHg 94%
    08:00 +23°C° 0.2 mm 4 m/s 747 mmHg 93%
    09:00 +25°C° 0.2 mm 4 m/s 747 mmHg 90%
    10:00 +26°C° 0.2 mm 4 m/s 748 mmHg 86%
    11:00 +27°C° 0.2 mm 4 m/s 748 mmHg 82%
    12:00 +28°C° 0 mm 4 m/s 747 mmHg 75%
    13:00 +30°C° 0 mm 4 m/s 746 mmHg 68%
    14:00 +32°C° 0 mm 4 m/s 745 mmHg 61%
    15:00 +31°C° 0 mm 3 m/s 745 mmHg 63%
    16:00 +31°C° 0 mm 3 m/s 744 mmHg 65%
    17:00 +31°C° 0 mm 2 m/s 744 mmHg 67%
    18:00 +29°C° 0 mm 2 m/s 744 mmHg 70%
    19:00 +28°C° 0 mm 2 m/s 745 mmHg 74%
    20:00 +26°C° 0 mm 2 m/s 745 mmHg 77%
    21:00 +26°C° 0 mm 2 m/s 746 mmHg 76%
    22:00 +26°C° 0 mm 2 m/s 746 mmHg 75%
    23:00 +26°C° 0 mm 2 m/s 747 mmHg 75%

    28 Março, Quinta-feira

    Tempo Temperatura Precipitação Vento Pressão Humidade
    00:00 +25°C° 0 mm 2 m/s 746 mmHg 75%
    01:00 +25°C° 0 mm 2 m/s 746 mmHg 76%
    02:00 +24°C° 0 mm 2 m/s 745 mmHg 76%
    03:00 +24°C° 0 mm 2 m/s 745 mmHg 77%
    04:00 +24°C° 0 mm 2 m/s 745 mmHg 77%
    05:00 +23°C° 0 mm 2 m/s 745 mmHg 77%
    06:00 +24°C° 0 mm 2 m/s 746 mmHg 76%
    07:00 +24°C° 0 mm 2 m/s 747 mmHg 75%
    08:00 +25°C° 0 mm 3 m/s 747 mmHg 75%
    09:00 +27°C° 0 mm 3 m/s 748 mmHg 68%
    10:00 +29°C° 0 mm 3 m/s 748 mmHg 62%
    11:00 +30°C° 0 mm 4 m/s 748 mmHg 56%
    12:00 +33°C° 0 mm 3 m/s 747 mmHg 53%
    13:00 +34°C° 0 mm 3 m/s 746 mmHg 51%
    14:00 +35°C° 0 mm 3 m/s 745 mmHg 48%
    15:00 +34°C° 0 mm 2 m/s 744 mmHg 53%
    16:00 +33°C° 0 mm 1 m/s 744 mmHg 58%
    17:00 +32°C° 0 mm 1 m/s 743 mmHg 62%
    18:00 +31°C° 0 mm 1 m/s 743 mmHg 65%
    19:00 +29°C° 0 mm 1 m/s 744 mmHg 68%
    20:00 +26°C° 0 mm 0 m/s 744 mmHg 70%
    21:00 +25°C° 0 mm 0 m/s 744 mmHg 72%
    22:00 +27°C° 0 mm 1 m/s 745 mmHg 73%
    23:00 +26°C° 0 mm 1 m/s 745 mmHg 75%

    29 Março, Sexta-feira

    Tempo Temperatura Precipitação Vento Pressão Humidade
    00:00 +26°C° 0 mm 1 m/s 745 mmHg 76%
    01:00 +25°C° 0 mm 1 m/s 744 mmHg 77%
    02:00 +25°C° 0 mm 1 m/s 744 mmHg 78%
    03:00 +25°C° 0 mm 1 m/s 744 mmHg 78%
    04:00 +25°C° 0 mm 1 m/s 744 mmHg 79%
    05:00 +24°C° 0 mm 1 m/s 744 mmHg 80%
    06:00 +25°C° 0 mm 1 m/s 744 mmHg 79%
    07:00 +25°C° 0 mm 1 m/s 745 mmHg 79%
    08:00 +26°C° 0 mm 1 m/s 746 mmHg 78%
    09:00 +28°C° 0 mm 1 m/s 746 mmHg 73%
    10:00 +29°C° 0 mm 1 m/s 746 mmHg 68%
    11:00 +31°C° 0 mm 1 m/s 745 mmHg 63%
    12:00 +32°C° 0.4 mm 1 m/s 745 mmHg 62%
    13:00 +33°C° 0.4 mm 1 m/s 744 mmHg 61%
    14:00 +34°C° 0.4 mm 1 m/s 743 mmHg 60%
    15:00 +33°C° 0.6 mm 1 m/s 742 mmHg 66%
    16:00 +32°C° 0.6 mm 1 m/s 742 mmHg 72%
    17:00 +31°C° 0.6 mm 1 m/s 741 mmHg 77%
    18:00 +29°C° 0 mm 1 m/s 742 mmHg 81%
    19:00 +28°C° 0 mm 1 m/s 742 mmHg 85%
    20:00 +27°C° 0 mm 1 m/s 743 mmHg 89%
    21:00 +26°C° 0 mm 1 m/s 743 mmHg 90%
    22:00 +26°C° 0 mm 1 m/s 743 mmHg 91%
    23:00 +26°C° 0 mm 1 m/s 744 mmHg 92%

    30 Março, Sábado

    Tempo Temperatura Precipitação Vento Pressão Humidade
    00:00 +26°C° 0.6 mm 1 m/s 743 mmHg 93%
    01:00 +25°C° 0.6 mm 1 m/s 743 mmHg 95%
    02:00 +23°C° 0.6 mm 0 m/s 743 mmHg 97%
    03:00 +23°C° 1.1 mm 0 m/s 743 mmHg 97%
    04:00 +23°C° 1.1 mm 0 m/s 743 mmHg 97%
    05:00 +23°C° 1.1 mm 0 m/s 743 mmHg 98%
    06:00 +23°C° 0.7 mm 0 m/s 744 mmHg 97%
    07:00 +26°C° 0.7 mm 1 m/s 744 mmHg 97%
    08:00 +26°C° 0.7 mm 1 m/s 745 mmHg 96%
    09:00 +27°C° 0.5 mm 1 m/s 745 mmHg 93%
    10:00 +28°C° 0.5 mm 1 m/s 745 mmHg 91%
    11:00 +29°C° 0.5 mm 2 m/s 746 mmHg 88%
    12:00 +29°C° 1.1 mm 2 m/s 745 mmHg 88%
    13:00 +29°C° 1.1 mm 2 m/s 744 mmHg 87%
    14:00 +29°C° 1.1 mm 3 m/s 743 mmHg 87%
    15:00 +29°C° 0.3 mm 2 m/s 742 mmHg 85%
    16:00 +30°C° 0.3 mm 2 m/s 742 mmHg 84%
    17:00 +30°C° 0.3 mm 2 m/s 741 mmHg 82%
    18:00 +29°C° 0 mm 1 m/s 742 mmHg 86%
    19:00 +28°C° 0 mm 1 m/s 742 mmHg 90%
    20:00 +26°C° 0 mm 1 m/s 742 mmHg 95%
    21:00 +26°C° 0 mm 1 m/s 743 mmHg 95%
    22:00 +26°C° 0 mm 1 m/s 743 mmHg 96%
    23:00 +26°C° 0 mm 1 m/s 744 mmHg 97%
    Mostrar mais